Terug naar catalogus

CZ-6A DEB

ActiefPO
NORAD 55895·DEBRIS·🇨🇳 China

Gelanceerd Nov 11, 2022 vanaf Taiyuan Satellite Launch Center

Loading…

Volgende Passages (komende 24 uur)

TLE

VersSource: Space-Track

Epoch: Sep 14, 2026, 10:25 UTC

1 55895U 22151AAT 26257.43428745  .00010276  00000-0  13348-2 0  9999
2 55895  98.5831 319.6729 0086152  25.9583 334.5909 14.78325274197855

Volg CZ-6A DEB in realtime met AllMySat

Download on the App Store